DW2770 Cefalu IT current weather conditions

sailwx.info

Wind from 180 at 3 knots gusting 4

Air temperature 16.1° C
Dewpoint 12.3° C

Last reported at 2014-Oct-30 22:40 UTC.
Time now 2014-Oct-31 13:39 UTC

Location: N 38°02' E 014°02'.
View on Google Maps.

See reports from other nearby stations

  
Tides and Currents Weather Stations Pressure Air Temp Water Temp Dewpoint Dewpoint Depression Visibility Wind Speed Wind Dir Waves Ship Positions
date/time (UTC)wind fromknots sea level pressurealtimeterstation pressurevisibilityair tempwater tempwave heightnotes
2014-Oct-30 22:40 180 3 gusting 4 16.1
2014-Oct-30 22:30 083 1 gusting 4 16.1
2014-Oct-30 22:20 202 4 gusting 10 16.7
2014-Oct-30 22:10 202 4 gusting 6 16.7
2014-Oct-30 22:00 202 0 gusting 6 16.7
2014-Oct-30 21:50 235 6 gusting 6 16.7
2014-Oct-30 21:40 248 8 gusting 12 16.7
2014-Oct-30 21:30 182 3 gusting 10 16.7
2014-Oct-30 21:10 202 10 gusting 10 16.7
2014-Oct-30 21:00 202 8 gusting 13 16.7
2014-Oct-30 20:50 190 6 gusting 13 16.1
2014-Oct-30 20:40 202 13 gusting 14 16.1
2014-Oct-30 20:30 202 16.7
2014-Oct-30 20:20 202 2 gusting 4 16.7
2014-Oct-30 20:10 180 2 gusting 2 16.1
2014-Oct-30 20:00 180 0 gusting 2 16.7
2014-Oct-30 19:50 193 0 gusting 4 16.7
2014-Oct-30 19:40 202 16.7
2014-Oct-30 19:30 180 2 gusting 5 16.7
2014-Oct-30 19:20 189 4 gusting 4 16.1
2014-Oct-30 19:10 180 2 gusting 4 15.6
2014-Oct-30 19:00 202 3 gusting 4 15.6
2014-Oct-30 18:50 193 2 gusting 2 15.6
2014-Oct-30 18:40 180 0 gusting 4 16.1
2014-Oct-30 18:30 202 1 gusting 2 16.1
2014-Oct-30 18:20 180 16.7
2014-Oct-30 18:10 202 0 gusting 0 16.7
2014-Oct-30 18:00 180 2 gusting 4 16.7
2014-Oct-30 17:50 215 2 gusting 2 16.7
2014-Oct-30 17:40 202 2 gusting 2 16.7
2014-Oct-30 17:30 202 2 gusting 2 16.7
2014-Oct-30 17:20 180 2 gusting 4 16.1
2014-Oct-30 17:10 202 2 gusting 4 16.1
2014-Oct-30 17:00 180 5 gusting 6 16.7
2014-Oct-30 16:50 202 4 gusting 5 16.7
2014-Oct-30 16:40 202 2 gusting 4 16.7
2014-Oct-30 16:30 248 4 gusting 4 16.7
2014-Oct-30 16:20 202 0 gusting 4 16.1
2014-Oct-30 16:10 202 5 gusting 6 16.1
2014-Oct-30 16:00 202 4 gusting 5 16.1
2014-Oct-30 15:50 173 1 gusting 4 16.7
2014-Oct-30 15:40 202 3 gusting 4 16.7
2014-Oct-30 15:30 090 17.2
2014-Oct-30 15:20 090 0 gusting 2 17.2
2014-Oct-30 15:10 112 1 gusting 1 18.3
2014-Oct-30 15:00 090 0 gusting 2 18.3
2014-Oct-30 14:50 064 18.9
2014-Oct-30 14:40 225 18.9
2014-Oct-30 14:30 135 0 gusting 1 18.3
2014-Oct-30 14:20 068 0 gusting 1 18.3
2014-Oct-30 14:10 112 0 gusting 1 18.3
2014-Oct-30 14:00 022 17.8
2014-Oct-30 13:50 298 18.3
2014-Oct-30 13:40 180 0 gusting 2 17.8
2014-Oct-30 13:30 045 0 gusting 11 17.8
2014-Oct-30 13:20 303 3 gusting 4 19.4
2014-Oct-30 13:10 338 2 gusting 5 19.4
2014-Oct-30 13:00 292 3 gusting 5 19.4
2014-Oct-30 12:50 283 3 gusting 5 19.4
2014-Oct-30 12:40 292 3 gusting 4 19.4
2014-Oct-30 12:30 248 1 gusting 4 19.4
2014-Oct-30 12:20 270 2 gusting 5 19.4
2014-Oct-30 12:10 270 3 gusting 6 19.4
2014-Oct-30 12:00 292 3 gusting 4 18.9
2014-Oct-30 11:50 292 4 gusting 4 18.9
2014-Oct-30 11:40 298 2 gusting 2 18.9
2014-Oct-30 11:30 270 0 gusting 1 18.3
2014-Oct-30 11:20 249 0 gusting 5 18.3
2014-Oct-30 11:10 202 2 gusting 2 18.3
2014-Oct-30 11:00 248 2 gusting 5 18.3
2014-Oct-30 10:50 267 0 gusting 4 18.3
2014-Oct-30 10:40 270 2 gusting 2 17.8
2014-Oct-30 10:30 248 0 gusting 2 17.8
2014-Oct-30 10:20 300 1 gusting 2 17.8
2014-Oct-30 10:10 270 1 gusting 4 18.3
2014-Oct-30 10:00 225 2 gusting 4 18.9
2014-Oct-30 09:50 356 18.9
2014-Oct-30 09:40 068 2 gusting 2 18.3
2014-Oct-30 09:30 045 1 gusting 2 18.3
2014-Oct-30 09:20 075 1 gusting 2 17.8
2014-Oct-30 09:10 068 1 gusting 1 17.8
2014-Oct-30 09:00 180 17.8
2014-Oct-30 08:50 202 0 gusting 1 17.2
2014-Oct-30 08:40 225 16.7
2014-Oct-30 08:30 225 1 gusting 1 16.7
2014-Oct-30 08:20 202 16.7
2014-Oct-30 08:10 202 2 gusting 2 16.1
2014-Oct-30 08:00 202 1 gusting 1 16.1
2014-Oct-30 07:50 183 1 gusting 4 15.6
2014-Oct-30 07:40 200 2 gusting 2 15.6
2014-Oct-30 07:30 180 1 gusting 2 15.0
2014-Oct-30 07:20 162 1 gusting 4 14.4
2014-Oct-30 07:10 183 2 gusting 8 13.9
2014-Oct-30 07:00 180 4 gusting 11 13.9
2014-Oct-30 06:50 177 2 gusting 8 14.4
2014-Oct-30 06:40 202 8 gusting 8 13.9
2014-Oct-30 06:30 248 14.4
2014-Oct-30 06:20 117 4 gusting 7 15.6
2014-Oct-30 06:10 066 4 gusting 10 17.2
2014-Oct-30 06:00 202 4 gusting 8 17.2
2014-Oct-30 05:50 202 8 gusting 8 17.2
2014-Oct-30 05:40 202 6 gusting 6 17.2
2014-Oct-30 05:30 202 7 gusting 8 17.2
2014-Oct-30 05:20 184 7 gusting 8 17.2
2014-Oct-30 05:10 202 7 gusting 11 17.2
2014-Oct-30 05:00 202 6 gusting 11 17.2
2014-Oct-30 04:50 202 5 gusting 11 17.2
2014-Oct-30 04:40 202 6 gusting 8 17.2
2014-Oct-30 04:30 202 8 gusting 8 17.2
2014-Oct-30 04:20 202 6 gusting 11 17.2
2014-Oct-30 04:10 202 6 gusting 10 17.2
2014-Oct-30 04:00 202 6 gusting 6 17.2
2014-Oct-30 03:50 206 6 gusting 10 17.2
2014-Oct-30 03:40 202 6 gusting 6 17.2
2014-Oct-30 03:30 225 4 gusting 6 17.2
2014-Oct-30 03:20 205 6 gusting 7 17.2
2014-Oct-30 03:10 202 6 gusting 6 17.2
2014-Oct-30 03:00 202 7 gusting 8 17.2
2014-Oct-30 02:50 183 7 gusting 8 17.2
2014-Oct-30 02:40 202 2 gusting 6 17.2
2014-Oct-30 02:30 202 6 gusting 6 17.2
2014-Oct-30 02:20 240 6 gusting 7 17.2
2014-Oct-30 02:10 196 4 gusting 7 17.2
2014-Oct-30 02:00 202 4 gusting 5 17.2
2014-Oct-30 01:50 182 3 gusting 4 17.2
2014-Oct-30 01:40 202 2 gusting 6 17.2
2014-Oct-30 01:30 225 5 gusting 6 17.2
2014-Oct-30 01:20 227 4 gusting 6 17.2
2014-Oct-30 01:10 206 5 gusting 6 17.2
2014-Oct-30 01:00 225 5 gusting 10 17.2
2014-Oct-30 00:50 245 5 gusting 10 17.2
2014-Oct-30 00:40 207 5 gusting 8 17.2
2014-Oct-30 00:30 202 5 gusting 7 17.2
2014-Oct-30 00:20 202 7 gusting 7 16.7
2014-Oct-30 00:10 202 5 gusting 5 16.7
2014-Oct-30 00:00 202 3 gusting 4 16.7
2014-Oct-29 23:50 202 2 gusting 2 16.1
2014-Oct-29 23:40 030 16.1
2014-Oct-29 23:30 180 1 gusting 2 16.1
2014-Oct-29 23:20 180 2 gusting 4 16.1
2014-Oct-29 23:10 183 0 gusting 2 16.1
2014-Oct-29 23:00 180 16.1
2014-Oct-29 22:50 135 16.1
2014-Oct-29 22:40 081 16.7
2014-Oct-29 22:30 202 3 gusting 5 16.7
2014-Oct-29 22:20 180 3 gusting 5 17.8
2014-Oct-29 22:10 214 5 gusting 6 17.8
2014-Oct-29 22:00 225 5 gusting 7 17.8
2014-Oct-29 21:50 202 4 gusting 7 17.8
2014-Oct-29 21:40 185 5 gusting 7 17.8
2014-Oct-29 21:30 202 5 gusting 6 17.8
2014-Oct-29 21:20 202 6 gusting 7 17.8
2014-Oct-29 21:10 202 7 gusting 7 17.2
2014-Oct-29 21:00 202 6 gusting 6 17.2
2014-Oct-29 20:50 202 4 gusting 5 16.7
2014-Oct-29 20:40 202 3 gusting 6 16.7
2014-Oct-29 20:30 158 3 gusting 4 17.2
2014-Oct-29 20:20 202 5 gusting 8 17.8
2014-Oct-29 20:10 202 4 gusting 6 17.2
2014-Oct-29 20:00 180 5 gusting 6 17.2
2014-Oct-29 19:50 180 4 gusting 7 17.8
2014-Oct-29 19:40 193 6 gusting 7 17.2
2014-Oct-29 19:30 180 4 gusting 7 17.2
2014-Oct-29 19:20 202 6 gusting 7 17.8
2014-Oct-29 19:10 180 6 gusting 11 17.8
2014-Oct-29 19:00 202 5 gusting 8 17.8
2014-Oct-29 18:50 202 6 gusting 8 17.8
2014-Oct-29 18:40 202 8 gusting 8 17.8
2014-Oct-29 18:30 202 6 gusting 7 17.2
2014-Oct-29 18:20 158 0 gusting 6 16.7
2014-Oct-29 18:10 195 2 gusting 5 16.7
2014-Oct-29 18:00 202 4 gusting 6 17.2
2014-Oct-29 17:50 202 5 gusting 6 17.8
2014-Oct-29 17:40 186 2 gusting 6 17.8
2014-Oct-29 17:30 181 3 gusting 6 17.2
2014-Oct-29 17:20 202 5 gusting 8 17.2
2014-Oct-29 17:10 202 6 gusting 6 17.8
2014-Oct-29 17:00 180 17.8
2014-Oct-29 16:50 202 0 gusting 1 18.3
2014-Oct-29 16:40 171 0 gusting 1 18.3
2014-Oct-29 16:30 202 18.3
2014-Oct-29 16:20 022 0 gusting 1 18.3
2014-Oct-29 16:10 067 18.9
2014-Oct-29 16:00 135 18.9
2014-Oct-29 15:50 202 3 gusting 4 18.9
2014-Oct-29 15:40 202 0 gusting 1 18.9
2014-Oct-29 15:30 158 2 gusting 4 18.9
2014-Oct-29 15:20 180 0 gusting 1 19.4
2014-Oct-29 15:10 202 1 gusting 4 19.4
2014-Oct-29 15:00 225 0 gusting 2 19.4
2014-Oct-29 14:50 225 1 gusting 1 19.4
2014-Oct-29 14:40 295 19.4
2014-Oct-29 14:30 292 2 gusting 2 19.4
2014-Oct-29 14:20 315 2 gusting 2 19.4
2014-Oct-29 14:09 225 2 gusting 2 20.0
2014-Oct-29 13:59 287 1 gusting 2 20.0
2014-Oct-29 13:49 090 0 gusting 2 20.0
2014-Oct-29 13:39 248 0 gusting 2 20.6
2014-Oct-29 13:29 045 1 gusting 6 20.0
2014-Oct-29 13:19 250 1 gusting 4 20.0
2014-Oct-29 13:09 315 0 gusting 5 20.0